Voltar ao catálogo

STARLINK-37169

AtivoComunicaçõesVLEO
NORAD 68346·PAYLOAD·🇺🇸 United States

Lançado Mar 22, 2026 de Cape Canaveral Space Force Station

Loading…

Próximas Passagens (próximas 24 horas)

TLE

AtualizadoSource: CelesTrak SupGP

Época: Sep 14, 2026, 23:13 UTC

1 68346C 26059AB  26257.96784722 -.00061223  00000+0 -18084-2 0  2571
2 68346  53.1573 181.8374 0001312  86.1371  31.3783 15.34429231    18

Acompanhe STARLINK-37169 em tempo real com AllMySat

Download on the App Store